Location: Jackson Park
(37.2862°N, 79.9123°W)
Time: 19:41:00
(UTC+00:00)

Vanguard 3 - Pass Details

Date: 18 May 2026
Orbit: 507 x 3205 km, 33.4° (Epoch: 31 May)

Event Time Altitude Azimuth Distance (km) Brightness Sun altitude
Rises 00:45:18 0° 284° (WNW) 7,004 13.8 -4.7°
Reaches altitude 10° 00:51:05 10° 276° (W) 5,737 12.7 -5.7°
Maximum altitude 01:04:23 31° 224° (SW) 3,364 10.4 -8.0°
Drops below altitude 10° 01:13:25 10° 166° (SSE) 3,839 10.2 -9.5°
Enters shadow 01:15:31 - 159° (SSE) 4,259 10.3 -9.8°
Sets 01:16:27 0° 156° (SSE) 4,469 - -10.0°
